DW1824 Weather Reports


Display with metric or nautical units.
time (UTC)temp
F
wind
direction
speed
MPH
gust
MPH
rain 1hr
in
rain 24hr
in
rain mn
in
humidity
%
barometer
mb
20260901063324 79 116 0.0 0.0 0.00 0.00 0.00 87 1015.9
20260901062335 80 116 0.0 0.0 0.00 0.00 0.00 86 1016.0
20260901061341 80 116 0.0 1.0 0.00 0.00 0.00 86 1015.8
20260901060326 80 116 1.0 2.0 0.00 0.00 0.00 85 1015.9
20260901055332 80 175 0.0 2.0 0.00 0.00 0.00 85 1015.8
20260901054338 80 175 0.0 0.0 0.00 0.00 0.00 84 1015.6
20260901053338 80 175 0.0 0.0 0.00 0.00 0.00 84 1015.7
20260901052344 80 175 0.0 0.0 0.00 0.00 0.00 84 1015.6
20260901051349 81 175 0.0 0.0 0.00 0.00 0.00 84 1015.6
20260901050336 81 174 0.0 0.0 0.00 0.00 0.00 84 1015.5
20260901045341 81 179 0.0 1.0 0.00 0.00 0.00 83 1015.6
20260901044347 81 177 0.0 2.0 0.00 0.00 0.00 83 1015.4
20260901043329 81 167 0.0 2.0 0.00 0.00 0.00 82 1015.5
20260901042354 82 140 0.0 0.0 0.00 0.00 0.00 81 1015.3
20260901041337 82 195 0.0 0.0 0.00 0.00 0.00 81 1015.3
20260901040342 82 195 0.0 0.0 0.00 0.00 0.00 80 1015.3
20260901035325 82 195 0.0 0.0 0.00 0.00 0.00 80 1015.2
20260901034335 82 186 0.0 0.0 0.00 0.00 0.00 80 1015.1
20260901033339 82 172 0.0 0.0 0.00 0.00 0.00 79 1015.0
20260901032345 83 158 0.0 0.0 0.00 0.00 0.00 79 1015.0
20260901031329 83 148 0.0 1.0 0.00 0.00 0.00 77 1014.8
20260901030332 83 160 0.0 0.0 0.00 0.00 0.00 76 1014.7
20260901025336 84 132 0.0 0.0 0.00 0.00 0.00 75 1014.6
20260901024341 84 132 0.0 2.0 0.00 0.00 0.00 75 1014.6
20260901023325 84 132 1.0 2.0 0.00 0.00 0.00 73 1014.6
20260901022335 85 132 1.0 3.0 0.00 0.00 0.00 72 1014.3
20260901021342 85 143 1.0 2.0 0.00 0.00 0.00 71 1014.1
20260901020329 85 144 1.0 3.0 0.00 0.00 0.00 70 1014.0
20260901015336 86 133 3.0 5.0 0.00 0.00 0.00 69 1013.8
20260901014342 86 143 2.0 5.0 0.00 0.00 0.00 68 1013.8
20260901013326 87 133 2.0 4.0 0.00 0.00 0.00 68 1013.8
20260901012336 87 141 2.0 4.0 0.00 0.00 0.00 67 1013.9
20260901011341 88 151 4.0 8.0 0.00 0.00 0.00 66 1014.0
20260901010342 89 133 3.0 7.0 0.00 0.00 0.00 64 1013.9
20260901005327 89 114 4.0 8.0 0.00 0.00 0.00 61 1013.8
20260901004351 90 135 4.0 7.0 0.00 0.00 0.00 59 1013.7
20260901003331 90 126 3.0 9.0 0.00 0.00 0.00 57 1013.7
20260901002357 91 132 4.0 9.0 0.00 0.00 0.00 55 1013.7
20260901001340 91 143 3.0 6.0 0.00 0.00 0.00 56 1013.7
20260901000405 92 113 2.0 10.0 0.00 0.00 0.00 55 1013.6
20260831235332 92 118 2.0 9.0 0.00 0.00 0.00 54 1013.7
20260831234338 93 123 3.0 6.0 0.00 0.00 0.00 55 1013.6
20260831233340 93 122 6.0 9.0 0.00 0.00 0.00 54 1013.6
20260831232325 93 133 4.0 10.0 0.00 0.00 0.00 54 1013.6
20260831231331 93 68 4.0 8.0 0.00 0.00 0.00 55 1013.5
20260831230334 93 136 5.0 11.0 0.00 0.00 0.00 54 1013.4
20260831225339 94 135 6.0 12.0 0.00 0.00 0.00 54 1013.6
20260831224328 94 102 2.0 7.0 0.00 0.00 0.00 55 1013.6
20260831223328 94 105 1.0 4.0 0.00 0.00 0.00 54 1013.6
20260831222334 94 116 1.0 4.0 0.00 0.00 0.00 54 1013.7
20260831221340 93 83 1.0 3.0 0.00 0.00 0.00 55 1013.7
20260831220342 93 144 0.0 1.0 0.00 0.00 0.00 54 1013.7
20260831215346 94 99 2.0 4.0 0.00 0.00 0.00 52 1013.8
20260831214350 95 138 1.0 3.0 0.00 0.00 0.00 50 1013.9
20260831213331 95 56 1.0 2.0 0.00 0.00 0.00 50 1013.9
20260831212341 95 343 1.0 3.0 0.00 0.00 0.00 51 1014.0
20260831211326 95 351 0.0 3.0 0.00 0.00 0.00 50 1014.0
20260831210330 95 112 1.0 4.0 0.00 0.00 0.00 49 1014.1
20260831205335 96 89 1.0 4.0 0.00 0.00 0.00 49 1014.1
20260831204402 96 102 3.0 4.0 0.00 0.00 0.00 49 1014.3
20260831203323 95 351 1.0 3.0 0.00 0.00 0.00 49 1014.4
20260831202330 96 360 1.0 4.0 0.00 0.00 0.00 48 1014.7
20260831201340 96 360 1.0 8.0 0.00 0.00 0.00 48 1014.8
20260831200343 96 322 2.0 6.0 0.00 0.00 0.00 51 1014.9
20260831195330 96 37 1.0 3.0 0.00 0.00 0.00 49 1015.1
20260831194355 96 27 1.0 8.0 0.00 0.00 0.00 50 1015.1
20260831193335 95 10 2.0 6.0 0.00 0.00 0.00 50 1015.2
20260831192400 95 33 1.0 4.0 0.00 0.00 0.00 51 1015.4
20260831191346 95 108 1.0 3.0 0.00 0.00 0.00 53 1015.6
20260831190329 94 25 2.0 5.0 0.00 0.00 0.00 52 1015.8
20260831185333 94 58 0.0 5.0 0.00 0.00 0.00 54 1016.1
20260831184340 94 38 1.0 3.0 0.00 0.00 0.00 54 1016.2
20260831183343 93 41 1.0 5.0 0.00 0.00 0.00 55 1016.2
20260831182329 94 330 3.0 7.0 0.00 0.00 0.00 54 1016.3
20260831181333 93 166 1.0 4.0 0.00 0.00 0.00 54 1016.4
20260831180339 92 338 0.0 3.0 0.00 0.00 0.00 56 1016.6
20260831175324 94 133 1.0 4.0 0.00 0.00 0.00 53 1016.7
20260831174330 93 50 0.0 5.0 0.00 0.00 0.00 55 1016.8
20260831173337 92 16 1.0 2.0 0.00 0.00 0.00 59 1016.8
20260831172402 91 136 1.0 3.0 0.00 0.00 0.00 59 1017.0
20260831171347 92 122 1.0 2.0 0.00 0.00 0.00 58 1017.0
20260831170330 91 15 1.0 3.0 0.00 0.00 0.00 60 1017.1
20260831165336 90 145 0.0 1.0 0.00 0.00 0.00 64 1017.1
20260831164342 91 97 1.0 4.0 0.00 0.00 0.00 60 1017.1
20260831163325 92 80 0.0 3.0 0.00 0.00 0.00 59 1017.2
20260831162331 91 266 0.0 4.0 0.00 0.00 0.00 63 1017.1
20260831161333 90 66 2.0 3.0 0.00 0.00 0.00 64 1017.2
20260831160341 89 343 0.0 1.0 0.00 0.00 0.00 68 1017.2
20260831155328 87 343 1.0 4.0 0.00 0.00 0.00 71 1017.2
20260831154334 87 200 0.0 1.0 0.00 0.00 0.00 71 1017.2
20260831153356 86 353 0.0 0.0 0.00 0.00 0.00 75 1017.2
20260831152339 86 313 0.0 0.0 0.00 0.00 0.00 77 1017.2
20260831151326 85 289 0.0 0.0 0.00 0.00 0.00 79 1017.2
20260831150330 84 308 0.0 0.0 0.00 0.00 0.00 81 1017.0
20260831145341 84 230 0.0 0.0 0.00 0.00 0.00 83 1017.1
20260831144327 83 204 0.0 1.0 0.00 0.00 0.00 84 1017.1
20260831143330 83 166 0.0 0.0 0.00 0.00 0.00 86 1016.9
20260831142336 82 163 0.0 0.0 0.00 0.00 0.00 89 1016.9
20260831141340 80 32 0.0 0.0 0.00 0.00 0.00 91 1016.9
20260831140343 79 32 0.0 0.0 0.00 0.00 0.00 93 1016.9
20260831135328 78 32 0.0 0.0 0.00 0.00 0.00 93 1016.8
20260831134338 78 32 0.0 1.0 0.00 0.00 0.00 94 1016.7
20260831133341 77 32 0.0 0.0 0.00 0.00 0.00 95 1016.8
20260831132347 76 32 0.0 1.0 0.00 0.00 0.00 95 1016.8
20260831131331 75 24 0.0 0.0 0.00 0.00 0.00 94 1016.6
20260831125339 74 29 0.0 0.0 0.00 0.00 0.00 94 1016.4
20260831124345 74 29 0.0 0.0 0.00 0.00 0.00 94 1016.1
20260831123326 74 16 0.0 0.0 0.00 0.00 0.00 94 1015.9
20260831122332 74 16 0.0 0.0 0.00 0.00 0.00 94 1015.8
20260831121341 73 16 0.0 0.0 0.00 0.00 0.00 93 1015.8
20260831120343 74 16 0.0 0.0 0.00 0.00 0.00 92 1015.6
20260831115328 74 16 0.0 0.0 0.00 0.00 0.00 93 1015.5
20260831114334 74 16 0.0 0.0 0.00 0.00 0.00 93 1015.6
20260831113338 74 16 0.0 0.0 0.00 0.00 0.00 93 1015.5
20260831112342 74 14 0.0 0.0 0.00 0.00 0.00 93 1015.6
20260831111331 74 14 0.0 0.0 0.00 0.00 0.00 91 1015.6
20260831110334 74 14 0.0 0.0 0.00 0.00 0.00 92 1015.6
20260831105340 74 14 0.0 0.0 0.00 0.00 0.00 92 1015.5
20260831104345 74 14 0.0 0.0 0.00 0.00 0.00 91 1015.5
20260831103349 74 14 0.0 0.0 0.00 0.00 0.00 91 1015.6
20260831102331 75 14 0.0 0.0 0.00 0.00 0.00 92 1015.5
20260831101337 75 14 0.0 0.0 0.00 0.00 0.00 91 1015.5
20260831100340 75 14 0.0 0.0 0.00 0.00 0.00 91 1015.5
20260831095325 75 14 0.0 0.0 0.00 0.00 0.00 90 1015.6
20260831094336 75 14 0.0 1.0 0.00 0.00 0.00 90 1015.6
20260831093340 76 14 1.0 3.0 0.00 0.00 0.00 90 1015.5
20260831092325 76 226 0.0 1.0 0.00 0.00 0.00 90 1015.3
20260831091352 76 226 0.0 1.0 0.00 0.00 0.00 91 1015.3
20260831090335 76 228 0.0 1.0 0.00 0.00 0.00 91 1015.3
20260831085340 76 196 0.0 1.0 0.00 0.00 0.00 90 1015.4
20260831084327 76 196 0.0 0.0 0.00 0.00 0.00 90 1015.4
20260831083335 76 196 0.0 0.0 0.00 0.00 0.00 90 1015.5
20260831082341 76 196 0.0 1.0 0.00 0.00 0.00 89 1015.5
20260831081327 76 159 0.0 1.0 0.00 0.00 0.00 89 1015.5
20260831080330 76 159 0.0 0.0 0.00 0.00 0.00 89 1015.5
20260831075335 77 159 0.0 0.0 0.00 0.00 0.00 89 1015.5
20260831074341 77 159 0.0 0.0 0.00 0.00 0.00 88 1015.5
20260831073345 77 159 0.0 0.0 0.00 0.00 0.00 88 1015.5
20260831072332 77 159 0.0 0.0 0.00 0.00 0.00 88 1015.7
20260831071336 77 159 0.0 0.0 0.00 0.00 0.00 89 1015.7
20260831070340 76 159 0.0 0.0 0.00 0.00 0.00 88 1015.8
20260831065325 77 159 0.0 1.0 0.00 0.00 0.00 88 1016.0
20260831064349 77 159 0.0 1.0 0.00 0.00 0.00 86 1016.0